User: anonymous   Login
Location: Bismarck
(46.7731°N, 100.8200°W)
Time: 05:58:48
(UTC-05:00)
Language:

Landsat 7 - Orbit

View from above orbital plane
View from above orbital plane
View from above satellite
View from above satellite

Ground track
Ground track

The orbit data is extracted from the following two-line orbital elements,

1 25682U 99020A   17292.14300330  .00000039  00000-0  18775-4 0  9992
2 25682  98.2007   1.5059 0000929  87.3384 272.7922 14.57111004984640
Epoch (UTC): 19 October 2017 03:25:55
Eccentricity: 0.0000929
inclination: 98.2007°
perigee height: 702 km
apogee height: 703 km
right ascension of ascending node: 1.5059°
argument of perigee: 87.3384°
revolutions per day: 14.57111004
mean anomaly at epoch: 272.7922°
orbit number at epoch: 98464

The dashed part of the orbit path shows where the satellite is in the earth's shadow,  

DLR